• In Hungary
  • List of Countries
  • For 7 days
  • Water Temperature
  • Satellite Maps
  • Weather Map
  • News
  • Weather Widgets
  • user-avatar
    Login

    Hourly Weather Gadelgareevo

    Today, 20 July, Friday

    Time Temperature Precipitation Wind Pressure Humidity
    00:00 +18°C° 0 mm 1 mps 721 mmHg 92%
    01:00 +18°C° 0 mm 1 mps 721 mmHg 93%
    02:00 +18°C° 0 mm 1 mps 721 mmHg 93%
    03:00 +16°C° 0 mm 1 mps 721 mmHg 94%
    04:00 +16°C° 0 mm 1 mps 721 mmHg 94%
    05:00 +18°C° 0 mm 1 mps 721 mmHg 92%
    06:00 +20°C° 0 mm 1 mps 721 mmHg 90%
    07:00 +21°C° 0 mm 1 mps 722 mmHg 89%
    08:00 +23°C° 0.1 mm 1 mps 722 mmHg 81%
    09:00 +25°C° 0.1 mm 1 mps 722 mmHg 73%
    10:00 +26°C° 0.1 mm 1 mps 722 mmHg 65%
    11:00 +27°C° 0.2 mm 1 mps 722 mmHg 62%
    12:00 +28°C° 0.2 mm 1 mps 722 mmHg 59%
    13:00 +29°C° 0.2 mm 1 mps 722 mmHg 57%
    14:00 +28°C° 0.7 mm 1 mps 722 mmHg 65%
    15:00 +27°C° 0.7 mm 1 mps 722 mmHg 73%
    16:00 +26°C° 0.7 mm 1 mps 722 mmHg 81%
    17:00 +25°C° 0.6 mm 1 mps 722 mmHg 84%
    18:00 +24°C° 0.6 mm 2 mps 721 mmHg 87%
    19:00 +23°C° 0.6 mm 2 mps 721 mmHg 90%
    20:00 +21°C° 0.1 mm 2 mps 721 mmHg 92%
    21:00 +20°C° 0.1 mm 2 mps 721 mmHg 93%
    22:00 +18°C° 0.1 mm 2 mps 721 mmHg 95%
    23:00 +18°C° 0 mm 3 mps 721 mmHg 95%

    Tomorrow, 21 July, Saturday

    Time Temperature Precipitation Wind Pressure Humidity
    00:00 +18°C° 0 mm 3 mps 721 mmHg 96%
    01:00 +17°C° 0 mm 3 mps 721 mmHg 96%
    02:00 +17°C° 0 mm 3 mps 721 mmHg 96%
    03:00 +17°C° 0 mm 4 mps 722 mmHg 96%
    04:00 +17°C° 0 mm 4 mps 722 mmHg 96%
    05:00 +18°C° 0 mm 4 mps 722 mmHg 93%
    06:00 +18°C° 0 mm 4 mps 722 mmHg 91%
    07:00 +19°C° 0 mm 4 mps 722 mmHg 88%
    08:00 +19°C° 0 mm 5 mps 722 mmHg 83%
    09:00 +20°C° 0 mm 5 mps 723 mmHg 78%
    10:00 +20°C° 0 mm 5 mps 723 mmHg 74%
    11:00 +20°C° 0 mm 5 mps 723 mmHg 74%
    12:00 +20°C° 0 mm 5 mps 723 mmHg 74%
    13:00 +20°C° 0 mm 6 mps 723 mmHg 74%
    14:00 +20°C° 0 mm 6 mps 723 mmHg 73%
    15:00 +20°C° 0 mm 6 mps 723 mmHg 72%
    16:00 +20°C° 0 mm 6 mps 723 mmHg 71%
    17:00 +20°C° 0 mm 5 mps 723 mmHg 73%
    18:00 +20°C° 0 mm 5 mps 723 mmHg 74%
    19:00 +19°C° 0 mm 5 mps 723 mmHg 76%
    20:00 +19°C° 0 mm 5 mps 723 mmHg 77%
    21:00 +17°C° 0 mm 5 mps 723 mmHg 77%
    22:00 +16°C° 0 mm 5 mps 724 mmHg 78%
    23:00 +16°C° 0 mm 5 mps 723 mmHg 78%

    Day after tomorrow, 22 July, Sunday

    Time Temperature Precipitation Wind Pressure Humidity
    00:00 +16°C° 0 mm 5 mps 723 mmHg 78%
    01:00 +15°C° 0 mm 5 mps 723 mmHg 78%
    02:00 +15°C° 0 mm 5 mps 723 mmHg 79%
    03:00 +14°C° 0 mm 5 mps 723 mmHg 81%
    04:00 +14°C° 0 mm 5 mps 723 mmHg 82%
    05:00 +14°C° 0 mm 5 mps 724 mmHg 80%
    06:00 +15°C° 0 mm 6 mps 724 mmHg 78%
    07:00 +15°C° 0 mm 6 mps 724 mmHg 77%
    08:00 +16°C° 0 mm 6 mps 724 mmHg 71%
    09:00 +19°C° 0 mm 6 mps 725 mmHg 65%
    10:00 +20°C° 0 mm 6 mps 725 mmHg 59%
    11:00 +20°C° 0 mm 6 mps 725 mmHg 55%
    12:00 +21°C° 0 mm 6 mps 725 mmHg 51%
    13:00 +22°C° 0 mm 6 mps 725 mmHg 47%
    14:00 +22°C° 0 mm 6 mps 725 mmHg 48%
    15:00 +22°C° 0 mm 5 mps 725 mmHg 49%
    16:00 +21°C° 0 mm 5 mps 725 mmHg 49%
    17:00 +20°C° 0 mm 5 mps 725 mmHg 54%
    18:00 +19°C° 0 mm 4 mps 725 mmHg 59%
    19:00 +18°C° 0 mm 3 mps 725 mmHg 64%
    20:00 +17°C° 0 mm 4 mps 725 mmHg 66%
    21:00 +15°C° 0 mm 4 mps 726 mmHg 68%
    22:00 +13°C° 0 mm 4 mps 726 mmHg 69%
    23:00 +13°C° 0 mm 4 mps 726 mmHg 70%

    23 July, Monday

    Time Temperature Precipitation Wind Pressure Humidity
    00:00 +12°C° 0 mm 4 mps 726 mmHg 72%
    01:00 +12°C° 0 mm 4 mps 726 mmHg 73%
    02:00 +11°C° 0 mm 4 mps 726 mmHg 75%
    03:00 +11°C° 0 mm 3 mps 726 mmHg 77%
    04:00 +10°C° 0 mm 3 mps 727 mmHg 80%
    05:00 +11°C° 0 mm 4 mps 727 mmHg 76%
    06:00 +12°C° 0 mm 4 mps 727 mmHg 72%
    07:00 +13°C° 0 mm 4 mps 727 mmHg 68%
    08:00 +15°C° 0 mm 4 mps 727 mmHg 63%
    09:00 +16°C° 0 mm 5 mps 728 mmHg 57%
    10:00 +19°C° 0 mm 5 mps 728 mmHg 52%
    11:00 +20°C° 0 mm 4 mps 728 mmHg 50%
    12:00 +20°C° 0 mm 4 mps 728 mmHg 47%
    13:00 +21°C° 0 mm 4 mps 728 mmHg 45%
    14:00 +22°C° 0 mm 4 mps 728 mmHg 45%
    15:00 +22°C° 0 mm 4 mps 728 mmHg 46%
    16:00 +22°C° 0 mm 4 mps 728 mmHg 46%
    17:00 +21°C° 0 mm 3 mps 728 mmHg 53%
    18:00 +19°C° 0 mm 3 mps 728 mmHg 60%
    19:00 +18°C° 0 mm 2 mps 727 mmHg 67%
    20:00 +16°C° 0 mm 2 mps 728 mmHg 73%
    21:00 +14°C° 0 mm 2 mps 728 mmHg 79%
    22:00 +12°C° 0 mm 2 mps 728 mmHg 85%
    23:00 +12°C° 0 mm 2 mps 728 mmHg 87%

    24 July, Tuesday

    Time Temperature Precipitation Wind Pressure Humidity
    00:00 +10°C° 0 mm 2 mps 728 mmHg 88%
    01:00 +10°C° 0 mm 2 mps 728 mmHg 90%
    02:00 +10°C° 0 mm 1 mps 728 mmHg 91%
    03:00 +10°C° 0 mm 1 mps 728 mmHg 91%
    04:00 +10°C° 0 mm 1 mps 728 mmHg 92%
    05:00 +12°C° 0 mm 1 mps 729 mmHg 86%
    06:00 +14°C° 0 mm 1 mps 729 mmHg 80%
    07:00 +15°C° 0 mm 1 mps 729 mmHg 74%
    08:00 +19°C° 0 mm 1 mps 729 mmHg 65%
    09:00 +20°C° 0 mm 2 mps 729 mmHg 57%
    10:00 +23°C° 0 mm 2 mps 730 mmHg 48%
    11:00 +24°C° 0 mm 2 mps 729 mmHg 46%
    12:00 +26°C° 0 mm 2 mps 729 mmHg 43%
    13:00 +27°C° 0 mm 2 mps 729 mmHg 40%
    14:00 +27°C° 0 mm 2 mps 729 mmHg 41%
    15:00 +27°C° 0 mm 1 mps 729 mmHg 42%
    16:00 +27°C° 0 mm 1 mps 729 mmHg 43%
    17:00 +26°C° 0 mm 1 mps 729 mmHg 52%
    18:00 +24°C° 0 mm 1 mps 728 mmHg 62%
    19:00 +23°C° 0 mm 1 mps 728 mmHg 71%
    20:00 +21°C° 0 mm 1 mps 728 mmHg 76%
    21:00 +19°C° 0 mm 1 mps 728 mmHg 81%
    22:00 +18°C° 0 mm 1 mps 728 mmHg 86%
    23:00 +16°C° 0 mm 1 mps 728 mmHg 88%

    25 July, Wednesday

    Time Temperature Precipitation Wind Pressure Humidity
    00:00 +16°C° 0 mm 1 mps 728 mmHg 89%
    01:00 +15°C° 0 mm 1 mps 728 mmHg 90%
    02:00 +15°C° 0 mm 1 mps 728 mmHg 91%
    03:00 +14°C° 0 mm 1 mps 728 mmHg 91%
    04:00 +14°C° 0 mm 1 mps 728 mmHg 91%
    05:00 +16°C° 0 mm 1 mps 729 mmHg 86%
    06:00 +19°C° 0 mm 1 mps 729 mmHg 80%
    07:00 +21°C° 0 mm 1 mps 729 mmHg 74%
    08:00 +23°C° 0 mm 1 mps 729 mmHg 65%
    09:00 +25°C° 0 mm 1 mps 729 mmHg 57%
    10:00 +27°C° 0 mm 2 mps 729 mmHg 48%
    11:00 +27°C° 0 mm 2 mps 729 mmHg 49%
    12:00 +27°C° 0 mm 2 mps 729 mmHg 50%
    13:00 +27°C° 0 mm 2 mps 729 mmHg 50%
    14:00 +27°C° 0 mm 2 mps 729 mmHg 50%
    15:00 +28°C° 0 mm 2 mps 729 mmHg 49%
    16:00 +28°C° 0 mm 2 mps 729 mmHg 48%
    17:00 +27°C° 0 mm 2 mps 729 mmHg 56%
    18:00 +25°C° 0 mm 2 mps 728 mmHg 64%
    19:00 +24°C° 0 mm 1 mps 728 mmHg 71%
    20:00 +22°C° 0 mm 1 mps 728 mmHg 75%
    21:00 +21°C° 0 mm 1 mps 728 mmHg 80%
    22:00 +19°C° 0 mm 1 mps 728 mmHg 84%
    23:00 +19°C° 0 mm 1 mps 729 mmHg 86%
    Show more